Victoria, British Columbia

1:06 AM PST on February 07, 2016 (GMT -0800)
Victoria International

Weather History for CYYJ - December, 2012

Change the Weather History Date:

Saturday, December 22, 2012

  Actual Average Record
Temperature  
Mean Temperature 40 °F -  
Max Temperature 42 °F 44 °F 55 °F (2005)
Min Temperature 37 °F 33 °F 19 °F (1998)
Degree Days  
Heating Degree Days 26    
Moisture  
Dew Point 38 °F    
Average Humidity 92    
Maximum Humidity 100    
Minimum Humidity 83    
Precipitation  
Precipitation 0.12 in 0.19 in - ()
Sea Level Pressure  
Sea Level Pressure 29.56 in    
Wind  
Wind Speed 5 mph ()    
Max Wind Speed 10 mph    
Max Gust Speed -    
Visibility 19.4 miles    
Events Rain    
Averages and records for this station are not official NWS values.
T = Trace of Precipitation, MM = Missing Value Source: Averaged Metar Reports

Daily Weather History Graph

Daily Weather History Graph

Search for Another Location

Airport or City:

Trip Planner

Search our weather history database for the weather conditions in past years. The results will help you decide how hot, cold, wet, or windy it might be!

Date:

Astronomy

Dec. 22, 2012 Rise Set
Actual Time 8:04 AM PST 4:21 PM PST
Civil Twilight 7:27 AM PST 4:58 PM PST
Nautical Twilight 6:46 AM PST 5:38 PM PST
Astronomical Twilight 6:08 AM PST 6:16 PM PST
Moon 12:55 PM PST (12/22) 2:39 AM PST (12/22)
Length of Visible Light 9h 30m
Length of Day
8h 16m
Waxing Gibbous, 74% of the Moon is Illuminated
Dec 22
Waxing Gibbous
Dec 28
Full
Jan 4
Last Quarter
Jan 11
New
Jan 18
First Quarter

Hourly Weather History & Observations

Time (PST) Temp. Windchill Dew Point Humidity Pressure Visibility Wind Dir Wind Speed Gust Speed Precip Events Conditions
12:00 AM 39.2 °F 37.0 °F 35.6 °F 87% 29.69 in 20.0 mi NW 3.5 mph - N/A Rain Light Rain
1:00 AM 39.2 °F 37.0 °F 37.4 °F 93% 29.68 in 20.0 mi WNW 3.5 mph - N/A   Overcast
2:00 AM 39.2 °F 35.9 °F 37.4 °F 93% 29.66 in 30.0 mi NW 4.6 mph - N/A   Overcast
3:00 AM 39.2 °F 35.9 °F 37.4 °F 93% 29.64 in 30.0 mi North 4.6 mph - N/A   Overcast
4:00 AM 40 °F - 37 °F 83% 29.62 in 28 mi NE 3.5 mph - -   Partly Cloudy
4:00 AM 41.0 °F 35.8 °F 37.4 °F 87% 29.62 in 30.0 mi ENE 8.1 mph - N/A   Overcast
4:48 AM 39.2 °F 35.0 °F - N/A% - 30.0 mi WNW 5.8 mph - N/A Rain Light Rain
5:00 AM 39.2 °F 35.9 °F 37.4 °F 93% 29.57 in 30.0 mi West 4.6 mph - N/A Rain Light Rain
5:19 AM 39.2 °F 35.9 °F - N/A% - 30.0 mi West 4.6 mph - N/A   Overcast
6:00 AM 39.2 °F - 37.4 °F 93% 29.55 in 30.0 mi WNW 2.3 mph - N/A   Overcast
7:00 AM 39.2 °F - 37.4 °F 93% 29.53 in 30.0 mi Calm Calm - N/A   Overcast
7:30 AM 39.2 °F 34.2 °F - N/A% - 30.0 mi West 6.9 mph - N/A Rain Light Rain
7:49 AM 39.2 °F 35.0 °F - N/A% - 30.0 mi WNW 5.8 mph - N/A   Overcast
8:00 AM 39.2 °F 35.9 °F 37.4 °F 93% 29.52 in 30.0 mi West 4.6 mph - N/A   Overcast
8:14 AM 39.2 °F 34.2 °F - N/A% - 30.0 mi SW 6.9 mph - N/A Rain Light Rain
8:50 AM 39.2 °F 35.0 °F - N/A% - 30.0 mi West 5.8 mph - N/A   Overcast
9:00 AM 37.4 °F 32.1 °F 37.4 °F 100% 29.51 in 30.0 mi WSW 6.9 mph - N/A   Overcast
9:19 AM 39.2 °F 35.0 °F - N/A% - 30.0 mi West 5.8 mph - N/A Rain Light Rain
10:00 AM 39 °F - 37 °F 89% 29.51 in 28 mi West 3.5 mph - - Rain Light Rain
10:00 AM 39.2 °F 37.0 °F 37.4 °F 93% 29.51 in 30.0 mi West 3.5 mph - N/A Rain Light Rain
11:00 AM 41.0 °F 35.8 °F 37.4 °F 87% 29.52 in 30.0 mi NNE 8.1 mph - N/A Rain Light Rain
12:00 PM 39.2 °F 35.0 °F 37.4 °F 93% 29.50 in 30.0 mi WSW 5.8 mph - N/A Rain Light Rain
12:16 PM 39.2 °F 33.6 °F - N/A% - 30.0 mi WNW 8.1 mph - N/A   Overcast
12:36 PM 39.2 °F 34.2 °F - N/A% - 20.0 mi West 6.9 mph - N/A   Overcast
1:00 PM 39.2 °F 35.0 °F 37.4 °F 93% 29.49 in 20.0 mi West 5.8 mph - N/A   Overcast
2:00 PM 39.2 °F 37.0 °F 39.2 °F 100% 29.47 in 20.0 mi West 3.5 mph - N/A   Mostly Cloudy
3:00 PM 39.2 °F 32.5 °F 37.4 °F 93% 29.48 in 30.0 mi West 10.4 mph - N/A   Mostly Cloudy
4:00 PM 39 °F - 38 °F 92% 29.49 in 28 mi WSW 4.6 mph - -   Partly Cloudy
4:00 PM 39.2 °F 35.9 °F 37.4 °F 93% 29.49 in 30.0 mi WSW 4.6 mph - N/A   Mostly Cloudy
5:00 PM 39.2 °F 33.6 °F 39.2 °F 100% 29.52 in 30.0 mi WSW 8.1 mph - N/A   Mostly Cloudy
5:05 PM 39.2 °F 34.2 °F - N/A% - 30.0 mi West 6.9 mph - N/A Rain Light Rain
6:00 PM 39.2 °F - 39.2 °F 100% 29.53 in 15.0 mi SSE 2.3 mph - N/A Rain Light Rain
7:00 PM 41.0 °F 36.4 °F 39.2 °F 93% 29.56 in 30.0 mi South 6.9 mph - N/A   Mostly Cloudy
7:26 PM 41.0 °F 35.8 °F - N/A% - 30.0 mi SSW 8.1 mph - N/A Rain Light Rain
8:00 PM 42.8 °F 39.3 °F 39.2 °F 87% 29.59 in 30.0 mi SSW 5.8 mph - N/A Rain Light Rain
9:00 PM 42.8 °F 38.6 °F 39.2 °F 87% 29.62 in 20.0 mi South 6.9 mph - N/A   Overcast
10:00 PM 41 °F - 39 °F 89% 29.64 in 19 mi SE 3.5 mph - -   Partly Cloudy
10:00 PM 41.0 °F 38.0 °F 39.2 °F 93% 29.64 in 20.0 mi SE 4.6 mph - N/A   Mostly Cloudy
11:00 PM 37.4 °F - 35.6 °F 93% 29.65 in 20.0 mi Calm Calm - N/A   Mostly Cloudy